{"data":{"norad_id":59065,"intl_designator":"2024-039Q","name":"PARS 1","alt_names":[],"object_type":"PAYLOAD","status":"ACTIVE","operator":null,"country":"IRAN","launch_date":"2024-02-29","launch_site_code":"VOSTO","launch_vehicle":null,"mission":null,"orbit_class":"UNKNOWN","rcs_meters":null,"size_class":null,"mass_kg":null,"dimensions":null,"purposes":["earth_obs"],"wikipedia_slug":null,"has_3d_model":false,"image_url":null,"decayed_at":null,"tle_current":{"epoch":"2026-05-25T04:47:34.600992Z","epoch_age_seconds":53877,"freshness":"FRESH","line1":"1 59065U 24039Q   26145.19970603  .00010200  00000+0  21656-3 0  9991","line2":"2 59065  97.4813 125.4064 0009165 185.0174 175.0985 15.45190533125096","mean_motion":15.45190533,"eccentricity":0.0009165,"inclination_deg":97.4813,"raan_deg":125.4064,"arg_perigee_deg":185.0174,"mean_anomaly_deg":175.0985,"bstar":0.00021656,"rev_number":12509,"period_min":93.192390792366,"perigee_km":424.57787864056,"apogee_km":437.05869368009,"semimajor_km":6808.9552861603,"source":"CELESTRAK","updated_at":"2026-05-25T13:38:12.835828Z"}}}